contact:dominique.lefevre@mio.osupytheas.fr, maurice.libes@osupytheas.fr, didier.mallarino@osupytheas.fr
Project:EMSO http://www.emso-fr.org/EMSO-France
Depth: 2436.0 m
Title:EMSO Ligure Ouest : Data MII capteur MICROCAT
DateTime_Computer,Latitude,Longitude,Temperature,Conductivity,Pressure,DateTime_Instrument
DateTime_Computer,Latitude,Longitude,degC,S m-1,dbar,DateTime_Instrument
2019-12-30T00:03:01Z,42.805,6.029,13.2974,4.59986,2469.97,2019-12-30T02:03:32Z
2019-12-30T00:06:04Z,42.805,6.029,13.2969,4.59978,2470.017,2019-12-30T02:06:36Z
2019-12-30T00:09:08Z,42.805,6.029,13.2979,4.59988,2469.97,2019-12-30T02:09:39Z
2019-12-30T00:12:11Z,42.805,6.029,13.2974,4.59991,2469.97,2019-12-30T02:12:42Z
2019-12-30T00:15:14Z,42.805,6.029,13.2980,4.59994,2469.993,2019-12-30T02:15:45Z
2019-12-30T00:18:18Z,42.805,6.029,13.2981,4.59993,2469.993,2019-12-30T02:18:49Z
2019-12-30T00:21:21Z,42.805,6.029,13.2985,4.60001,2469.993,2019-12-30T02:21:52Z
2019-12-30T00:24:24Z,42.805,6.029,13.2974,4.59998,2470.03,2019-12-30T02:24:55Z
2019-12-30T00:27:27Z,42.805,6.029,13.2980,4.59994,2469.97,2019-12-30T02:27:58Z
2019-12-30T00:30:30Z,42.805,6.029,13.2968,4.59984,2469.97,2019-12-30T02:31:02Z
2019-12-30T00:33:34Z,42.805,6.029,13.2971,4.59997,2469.984,2019-12-30T02:34:05Z
2019-12-30T00:36:37Z,42.805,6.029,13.2982,4.59985,2470.007,2019-12-30T02:37:08Z
2019-12-30T00:39:40Z,42.805,6.029,13.2970,4.59983,2469.984,2019-12-30T02:40:11Z
2019-12-30T00:42:43Z,42.805,6.029,13.2973,4.59983,2469.97,2019-12-30T02:43:14Z
2019-12-30T00:45:46Z,42.805,6.029,13.2974,4.60000,2469.993,2019-12-30T02:46:18Z
2019-12-30T00:48:50Z,42.805,6.029,13.2980,4.59984,2469.97,2019-12-30T02:49:21Z
2019-12-30T00:51:53Z,42.805,6.029,13.2976,4.60002,2469.984,2019-12-30T02:52:24Z
2019-12-30T00:54:56Z,42.805,6.029,13.2972,4.59983,2469.96,2019-12-30T02:55:28Z
2019-12-30T00:58:00Z,42.805,6.029,13.2979,4.59991,2469.947,2019-12-30T02:58:31Z
2019-12-30T01:01:03Z,42.805,6.029,13.2974,4.59976,2469.97,2019-12-30T03:01:34Z
2019-12-30T01:04:06Z,42.805,6.029,13.2969,4.59980,2469.984,2019-12-30T03:04:37Z
2019-12-30T01:07:09Z,42.805,6.029,13.2970,4.59978,2469.97,2019-12-30T03:07:41Z
2019-12-30T01:10:12Z,42.805,6.029,13.2969,4.59985,2469.97,2019-12-30T03:10:44Z
2019-12-30T01:13:16Z,42.805,6.029,13.2975,4.59983,2469.956,2019-12-30T03:13:47Z
2019-12-30T01:16:19Z,42.805,6.029,13.2980,4.59992,2469.947,2019-12-30T03:16:50Z
2019-12-30T01:19:22Z,42.805,6.029,13.2983,4.59987,2469.97,2019-12-30T03:19:53Z
2019-12-30T01:22:26Z,42.805,6.029,13.2983,4.59985,2469.96,2019-12-30T03:22:57Z
2019-12-30T01:25:29Z,42.805,6.029,13.2981,4.59983,2469.97,2019-12-30T03:26:00Z
2019-12-30T01:28:33Z,42.805,6.029,13.2977,4.59993,2469.937,2019-12-30T03:29:04Z
2019-12-30T01:31:36Z,42.805,6.029,13.2979,4.60000,2469.947,2019-12-30T03:32:07Z
2019-12-30T01:34:39Z,42.805,6.029,13.2973,4.59983,2469.96,2019-12-30T03:35:10Z
2019-12-30T01:37:42Z,42.805,6.029,13.2983,4.60006,2469.923,2019-12-30T03:38:13Z
2019-12-30T01:40:45Z,42.805,6.029,13.2976,4.59986,2469.97,2019-12-30T03:41:17Z
2019-12-30T01:43:49Z,42.805,6.029,13.2982,4.59990,2469.96,2019-12-30T03:44:20Z
2019-12-30T01:46:52Z,42.805,6.029,13.2978,4.59986,2469.984,2019-12-30T03:47:23Z
2019-12-30T01:49:55Z,42.805,6.029,13.2979,4.60014,2469.947,2019-12-30T03:50:27Z
2019-12-30T01:52:59Z,42.805,6.029,13.2977,4.59982,2469.96,2019-12-30T03:53:30Z
2019-12-30T01:56:02Z,42.805,6.029,13.2976,4.59984,2469.96,2019-12-30T03:56:33Z
2019-12-30T01:59:05Z,42.805,6.029,13.2976,4.59998,2469.947,2019-12-30T03:59:36Z
2019-12-30T02:02:08Z,42.805,6.029,13.2976,4.59975,2469.97,2019-12-30T04:02:40Z
2019-12-30T02:05:12Z,42.805,6.029,13.2975,4.59978,2469.923,2019-12-30T04:05:43Z
2019-12-30T02:08:15Z,42.805,6.029,13.2978,4.59984,2469.947,2019-12-30T04:08:46Z
2019-12-30T02:11:18Z,42.805,6.029,13.2974,4.59995,2469.947,2019-12-30T04:11:49Z
2019-12-30T02:14:21Z,42.805,6.029,13.2974,4.59999,2469.947,2019-12-30T04:14:53Z
2019-12-30T02:17:25Z,42.805,6.029,13.2982,4.59985,2469.97,2019-12-30T04:17:56Z
2019-12-30T02:20:28Z,42.805,6.029,13.2979,4.59985,2469.923,2019-12-30T04:20:59Z
2019-12-30T02:23:31Z,42.805,6.029,13.2980,4.59982,2469.923,2019-12-30T04:24:02Z
2019-12-30T02:26:34Z,42.805,6.029,13.2978,4.59983,2469.947,2019-12-30T04:27:05Z
2019-12-30T02:29:37Z,42.805,6.029,13.2975,4.59986,2469.937,2019-12-30T04:30:09Z
2019-12-30T02:32:41Z,42.805,6.029,13.2974,4.59983,2469.937,2019-12-30T04:33:12Z
2019-12-30T02:35:44Z,42.805,6.029,13.2980,4.59983,2469.96,2019-12-30T04:36:15Z
2019-12-30T02:38:47Z,42.805,6.029,13.2982,4.59993,2469.923,2019-12-30T04:39:18Z
2019-12-30T02:41:50Z,42.805,6.029,13.2976,4.59990,2469.947,2019-12-30T04:42:22Z
2019-12-30T02:44:54Z,42.805,6.029,13.2979,4.59988,2469.947,2019-12-30T04:45:25Z
2019-12-30T02:47:57Z,42.805,6.029,13.2977,4.59985,2469.947,2019-12-30T04:48:28Z
2019-12-30T02:51:00Z,42.805,6.029,13.2986,4.60002,2469.937,2019-12-30T04:51:31Z
2019-12-30T02:54:03Z,42.805,6.029,13.2978,4.59990,2469.923,2019-12-30T04:54:34Z
2019-12-30T02:57:06Z,42.805,6.029,13.2983,4.59987,2469.937,2019-12-30T04:57:38Z
2019-12-30T03:00:10Z,42.805,6.029,13.2982,4.59987,2469.923,2019-12-30T05:00:41Z
2019-12-30T03:03:13Z,42.805,6.029,13.2980,4.59984,2469.923,2019-12-30T05:03:44Z
2019-12-30T03:06:16Z,42.805,6.029,13.2982,4.59993,2469.9,2019-12-30T05:06:47Z
2019-12-30T03:09:19Z,42.805,6.029,13.2976,4.59985,2469.937,2019-12-30T05:09:51Z
2019-12-30T03:12:23Z,42.805,6.029,13.2978,4.59984,2469.947,2019-12-30T05:12:54Z
2019-12-30T03:15:26Z,42.805,6.029,13.2982,4.59983,2469.937,2019-12-30T05:15:57Z
2019-12-30T03:18:29Z,42.805,6.029,13.2976,4.59981,2469.9,2019-12-30T05:19:00Z
2019-12-30T03:21:32Z,42.805,6.029,13.2973,4.59985,2469.923,2019-12-30T05:22:03Z
2019-12-30T03:24:35Z,42.805,6.029,13.2974,4.59981,2469.96,2019-12-30T05:25:07Z
2019-12-30T03:27:39Z,42.805,6.029,13.2979,4.59988,2469.96,2019-12-30T05:28:10Z
2019-12-30T03:30:42Z,42.805,6.029,13.2977,4.59982,2469.914,2019-12-30T05:31:13Z
2019-12-30T03:33:45Z,42.805,6.029,13.2978,4.59988,2469.923,2019-12-30T05:34:16Z
2019-12-30T03:36:48Z,42.805,6.029,13.2979,4.59987,2469.914,2019-12-30T05:37:19Z
2019-12-30T03:39:51Z,42.805,6.029,13.2977,4.59986,2469.923,2019-12-30T05:40:23Z
2019-12-30T03:42:55Z,42.805,6.029,13.2977,4.59992,2469.937,2019-12-30T05:43:26Z
2019-12-30T03:45:58Z,42.805,6.029,13.2975,4.59988,2469.923,2019-12-30T05:46:29Z
2019-12-30T03:49:01Z,42.805,6.029,13.2976,4.59983,2469.984,2019-12-30T05:49:32Z
2019-12-30T03:52:04Z,42.805,6.029,13.2979,4.59999,2469.923,2019-12-30T05:52:36Z
2019-12-30T03:55:08Z,42.805,6.029,13.2971,4.59980,2469.923,2019-12-30T05:55:39Z
2019-12-30T03:58:11Z,42.805,6.029,13.2976,4.59981,2469.937,2019-12-30T05:58:42Z
2019-12-30T04:01:14Z,42.805,6.029,13.2974,4.59990,2469.923,2019-12-30T06:01:45Z
2019-12-30T04:04:17Z,42.805,6.029,13.2974,4.59980,2469.947,2019-12-30T06:04:49Z
2019-12-30T04:07:21Z,42.805,6.029,13.2979,4.59986,2469.923,2019-12-30T06:07:52Z
2019-12-30T04:10:24Z,42.805,6.029,13.2979,4.59987,2469.923,2019-12-30T06:10:55Z
2019-12-30T04:13:27Z,42.805,6.029,13.2982,4.59983,2469.937,2019-12-30T06:13:58Z
2019-12-30T04:16:30Z,42.805,6.029,13.2985,4.59991,2469.923,2019-12-30T06:17:02Z
2019-12-30T04:19:34Z,42.805,6.029,13.2970,4.59999,2469.947,2019-12-30T06:20:05Z
2019-12-30T04:22:37Z,42.805,6.029,13.2977,4.59996,2469.9,2019-12-30T06:23:08Z
2019-12-30T04:25:40Z,42.805,6.029,13.2976,4.59985,2469.947,2019-12-30T06:26:11Z
2019-12-30T04:28:43Z,42.805,6.029,13.2977,4.59983,2469.923,2019-12-30T06:29:14Z
2019-12-30T04:31:46Z,42.805,6.029,13.2976,4.59998,2469.984,2019-12-30T06:32:18Z
2019-12-30T04:34:50Z,42.805,6.029,13.2979,4.59983,2469.947,2019-12-30T06:35:21Z
2019-12-30T04:37:53Z,42.805,6.029,13.2971,4.59986,2469.96,2019-12-30T06:38:24Z
2019-12-30T04:40:56Z,42.805,6.029,13.2978,4.59990,2469.96,2019-12-30T06:41:27Z
2019-12-30T04:43:59Z,42.805,6.029,13.2979,4.59982,2469.97,2019-12-30T06:44:31Z
2019-12-30T04:47:03Z,42.805,6.029,13.2979,4.59986,2469.97,2019-12-30T06:47:34Z
2019-12-30T04:50:06Z,42.805,6.029,13.2975,4.59993,2469.923,2019-12-30T06:50:37Z
2019-12-30T04:53:09Z,42.805,6.029,13.2976,4.59983,2469.947,2019-12-30T06:53:40Z
2019-12-30T04:56:12Z,42.805,6.029,13.2969,4.59981,2469.984,2019-12-30T06:56:43Z
2019-12-30T04:59:15Z,42.805,6.029,13.2976,4.59995,2469.96,2019-12-30T06:59:47Z
2019-12-30T05:02:18Z,42.805,6.029,13.2979,4.59995,2469.96,2019-12-30T07:02:50Z
2019-12-30T05:05:22Z,42.805,6.029,13.2977,4.59990,2469.923,2019-12-30T07:05:53Z
2019-12-30T05:08:25Z,42.805,6.029,13.2973,4.59985,2469.96,2019-12-30T07:08:56Z
2019-12-30T05:11:28Z,42.805,6.029,13.2976,4.59982,2469.96,2019-12-30T07:11:59Z
2019-12-30T05:14:31Z,42.805,6.029,13.2979,4.59994,2469.984,2019-12-30T07:15:03Z
2019-12-30T05:17:35Z,42.805,6.029,13.2983,4.59998,2469.97,2019-12-30T07:18:06Z
2019-12-30T05:20:38Z,42.805,6.029,13.2982,4.60002,2469.993,2019-12-30T07:21:09Z
2019-12-30T05:23:41Z,42.805,6.029,13.2991,4.60007,2469.97,2019-12-30T07:24:12Z
2019-12-30T05:26:44Z,42.805,6.029,13.2976,4.59989,2470.007,2019-12-30T07:27:15Z
2019-12-30T05:29:47Z,42.805,6.029,13.2972,4.59984,2469.984,2019-12-30T07:30:19Z
2019-12-30T05:32:51Z,42.805,6.029,13.2982,4.59994,2469.993,2019-12-30T07:33:22Z
2019-12-30T05:35:54Z,42.805,6.029,13.2977,4.59996,2469.993,2019-12-30T07:36:25Z
2019-12-30T05:38:57Z,42.805,6.029,13.2979,4.59986,2469.993,2019-12-30T07:39:28Z
2019-12-30T05:42:00Z,42.805,6.029,13.2983,4.59997,2469.97,2019-12-30T07:42:32Z
2019-12-30T05:45:03Z,42.805,6.029,13.2974,4.59988,2469.97,2019-12-30T07:45:35Z
2019-12-30T05:48:07Z,42.805,6.029,13.2971,4.59983,2469.97,2019-12-30T07:48:38Z
2019-12-30T05:51:10Z,42.805,6.029,13.2982,4.59985,2469.993,2019-12-30T07:51:41Z
2019-12-30T05:54:13Z,42.805,6.029,13.2979,4.59986,2469.993,2019-12-30T07:54:44Z
2019-12-30T05:57:16Z,42.805,6.029,13.2976,4.59984,2470.007,2019-12-30T07:57:48Z
2019-12-30T06:00:20Z,42.805,6.029,13.2976,4.59996,2470.017,2019-12-30T08:00:51Z
2019-12-30T06:03:23Z,42.805,6.029,13.2976,4.59985,2469.993,2019-12-30T08:03:54Z
2019-12-30T06:06:26Z,42.805,6.029,13.2977,4.59978,2470.007,2019-12-30T08:06:57Z
2019-12-30T06:09:29Z,42.805,6.029,13.2972,4.59979,2470.007,2019-12-30T08:10:01Z
2019-12-30T06:12:33Z,42.805,6.029,13.2971,4.59977,2470.03,2019-12-30T08:13:04Z
2019-12-30T06:15:36Z,42.805,6.029,13.2971,4.59993,2470.017,2019-12-30T08:16:07Z
2019-12-30T06:18:39Z,42.805,6.029,13.2976,4.59988,2470.03,2019-12-30T08:19:10Z
2019-12-30T06:21:42Z,42.805,6.029,13.2974,4.59988,2469.993,2019-12-30T08:22:13Z
2019-12-30T06:24:45Z,42.805,6.029,13.2976,4.59981,2470.04,2019-12-30T08:25:17Z
2019-12-30T06:27:49Z,42.805,6.029,13.2975,4.59982,2470.007,2019-12-30T08:28:20Z
2019-12-30T06:30:52Z,42.805,6.029,13.2974,4.59991,2470.017,2019-12-30T08:31:23Z
2019-12-30T06:33:55Z,42.805,6.029,13.2974,4.59981,2470.04,2019-12-30T08:34:26Z
2019-12-30T06:36:58Z,42.805,6.029,13.2982,4.59988,2470.03,2019-12-30T08:37:30Z
2019-12-30T06:40:02Z,42.805,6.029,13.2970,4.60006,2470.017,2019-12-30T08:40:33Z
2019-12-30T06:43:05Z,42.805,6.029,13.2974,4.59977,2470.053,2019-12-30T08:43:36Z
2019-12-30T06:46:08Z,42.805,6.029,13.2976,4.59982,2470.04,2019-12-30T08:46:39Z
2019-12-30T06:49:11Z,42.805,6.029,13.2979,4.59988,2470.04,2019-12-30T08:49:42Z
2019-12-30T06:52:14Z,42.805,6.029,13.2975,4.59986,2470.053,2019-12-30T08:52:45Z
2019-12-30T06:55:18Z,42.805,6.029,13.2973,4.59988,2470.063,2019-12-30T08:55:49Z
2019-12-30T06:58:21Z,42.805,6.029,13.2974,4.59994,2470.04,2019-12-30T08:58:52Z
2019-12-30T07:01:24Z,42.805,6.029,13.2974,4.60001,2470.04,2019-12-30T09:01:55Z
2019-12-30T07:04:27Z,42.805,6.029,13.2977,4.59985,2470.063,2019-12-30T09:04:59Z
2019-12-30T07:07:31Z,42.805,6.029,13.2968,4.59978,2470.063,2019-12-30T09:08:02Z
2019-12-30T07:10:34Z,42.805,6.029,13.2968,4.59981,2470.077,2019-12-30T09:11:05Z
2019-12-30T07:13:37Z,42.805,6.029,13.2974,4.59981,2470.063,2019-12-30T09:14:08Z
2019-12-30T07:16:40Z,42.805,6.029,13.2978,4.59983,2470.063,2019-12-30T09:17:11Z
2019-12-30T07:19:43Z,42.805,6.029,13.2974,4.59987,2470.063,2019-12-30T09:20:15Z
2019-12-30T07:22:47Z,42.805,6.029,13.2974,4.59990,2470.063,2019-12-30T09:23:18Z
2019-12-30T07:25:50Z,42.805,6.029,13.2971,4.59980,2470.087,2019-12-30T09:26:21Z
2019-12-30T07:28:53Z,42.805,6.029,13.2974,4.59981,2470.124,2019-12-30T09:29:24Z
2019-12-30T07:31:56Z,42.805,6.029,13.2977,4.59978,2470.087,2019-12-30T09:32:28Z
2019-12-30T07:34:59Z,42.805,6.029,13.2974,4.59983,2470.11,2019-12-30T09:35:31Z
2019-12-30T07:38:03Z,42.805,6.029,13.2979,4.59997,2470.147,2019-12-30T09:38:34Z
2019-12-30T07:41:06Z,42.805,6.029,13.2971,4.59981,2470.11,2019-12-30T09:41:37Z
2019-12-30T07:44:09Z,42.805,6.029,13.2972,4.59978,2470.11,2019-12-30T09:44:40Z
2019-12-30T07:47:12Z,42.805,6.029,13.2974,4.59993,2470.124,2019-12-30T09:47:44Z
2019-12-30T07:50:16Z,42.805,6.029,13.2973,4.59985,2470.087,2019-12-30T09:50:47Z
2019-12-30T07:53:19Z,42.805,6.029,13.2976,4.59978,2470.124,2019-12-30T09:53:50Z
2019-12-30T07:56:22Z,42.805,6.029,13.2975,4.59997,2470.11,2019-12-30T09:56:53Z
2019-12-30T07:59:25Z,42.805,6.029,13.2970,4.59983,2470.147,2019-12-30T09:59:57Z
2019-12-30T08:02:29Z,42.805,6.029,13.2983,4.59986,2470.11,2019-12-30T10:03:00Z
2019-12-30T08:05:32Z,42.805,6.029,13.2976,4.59991,2470.147,2019-12-30T10:06:03Z
2019-12-30T08:08:35Z,42.805,6.029,13.2980,4.59994,2470.147,2019-12-30T10:09:06Z
2019-12-30T08:11:38Z,42.805,6.029,13.2989,4.59997,2470.133,2019-12-30T10:12:09Z
2019-12-30T08:14:41Z,42.805,6.029,13.2986,4.59995,2470.18,2019-12-30T10:15:13Z
2019-12-30T08:17:45Z,42.805,6.029,13.2976,4.59996,2470.147,2019-12-30T10:18:16Z
2019-12-30T08:20:48Z,42.805,6.029,13.2973,4.59987,2470.171,2019-12-30T10:21:19Z
2019-12-30T08:23:51Z,42.805,6.029,13.2982,4.59994,2470.171,2019-12-30T10:24:22Z
2019-12-30T08:26:54Z,42.805,6.029,13.2989,4.60000,2470.194,2019-12-30T10:27:26Z
2019-12-30T08:29:58Z,42.805,6.029,13.2974,4.59986,2470.171,2019-12-30T10:30:29Z
2019-12-30T08:33:01Z,42.805,6.029,13.2974,4.59983,2470.156,2019-12-30T10:33:32Z
2019-12-30T08:36:04Z,42.805,6.029,13.2974,4.59979,2470.194,2019-12-30T10:36:35Z
2019-12-30T08:39:07Z,42.805,6.029,13.2976,4.59994,2470.171,2019-12-30T10:39:38Z
2019-12-30T08:42:10Z,42.805,6.029,13.2986,4.59995,2470.18,2019-12-30T10:42:42Z
2019-12-30T08:45:14Z,42.805,6.029,13.2981,4.59999,2470.18,2019-12-30T10:45:45Z
2019-12-30T08:48:17Z,42.805,6.029,13.2980,4.59984,2470.156,2019-12-30T10:48:48Z
2019-12-30T08:51:21Z,42.805,6.029,13.2977,4.59997,2470.18,2019-12-30T10:51:52Z
2019-12-30T08:54:24Z,42.805,6.029,13.2990,4.60003,2470.156,2019-12-30T10:54:55Z
2019-12-30T08:57:27Z,42.805,6.029,13.2971,4.59994,2470.18,2019-12-30T10:57:58Z
2019-12-30T09:00:30Z,42.805,6.029,13.2973,4.59994,2470.18,2019-12-30T11:01:02Z
2019-12-30T09:03:34Z,42.805,6.029,13.2978,4.59983,2470.194,2019-12-30T11:04:05Z
2019-12-30T09:06:37Z,42.805,6.029,13.2973,4.59981,2470.18,2019-12-30T11:07:08Z
2019-12-30T09:09:40Z,42.805,6.029,13.2984,4.59996,2470.194,2019-12-30T11:10:11Z
2019-12-30T09:12:43Z,42.805,6.029,13.2982,4.60001,2470.171,2019-12-30T11:13:15Z
2019-12-30T09:15:47Z,42.805,6.029,13.2986,4.59996,2470.18,2019-12-30T11:16:18Z
2019-12-30T09:18:50Z,42.805,6.029,13.2983,4.59995,2470.217,2019-12-30T11:19:21Z
2019-12-30T09:21:53Z,42.805,6.029,13.2981,4.59994,2470.217,2019-12-30T11:22:24Z
2019-12-30T09:24:56Z,42.805,6.029,13.2990,4.59996,2470.203,2019-12-30T11:25:27Z
2019-12-30T09:27:59Z,42.805,6.029,13.2987,4.60004,2470.194,2019-12-30T11:28:31Z
2019-12-30T09:31:03Z,42.805,6.029,13.2974,4.59986,2470.24,2019-12-30T11:31:34Z
2019-12-30T09:34:06Z,42.805,6.029,13.2974,4.59983,2470.227,2019-12-30T11:34:37Z
2019-12-30T09:37:09Z,42.805,6.029,13.2973,4.59982,2470.217,2019-12-30T11:37:40Z
2019-12-30T09:40:12Z,42.805,6.029,13.2982,4.59983,2470.18,2019-12-30T11:40:44Z
2019-12-30T09:43:15Z,42.805,6.029,13.2976,4.59988,2470.171,2019-12-30T11:43:47Z
2019-12-30T09:46:19Z,42.805,6.029,13.2973,4.59985,2470.217,2019-12-30T11:46:50Z
2019-12-30T09:49:22Z,42.805,6.029,13.2976,4.59984,2470.194,2019-12-30T11:49:53Z
2019-12-30T09:52:25Z,42.805,6.029,13.2971,4.59978,2470.194,2019-12-30T11:52:56Z
2019-12-30T09:55:28Z,42.805,6.029,13.2975,4.59980,2470.217,2019-12-30T11:56:00Z
2019-12-30T09:58:32Z,42.805,6.029,13.2986,4.59988,2470.18,2019-12-30T11:59:03Z
2019-12-30T10:01:35Z,42.805,6.029,13.2974,4.59983,2470.203,2019-12-30T12:02:06Z
2019-12-30T10:04:38Z,42.805,6.029,13.2974,4.59990,2470.213,2019-12-30T12:05:09Z
2019-12-30T10:07:41Z,42.805,6.029,13.2976,4.59994,2470.194,2019-12-30T12:08:12Z
2019-12-30T10:10:44Z,42.805,6.029,13.2980,4.60008,2470.217,2019-12-30T12:11:16Z
2019-12-30T10:13:48Z,42.805,6.029,13.2983,4.60017,2470.203,2019-12-30T12:14:19Z
2019-12-30T10:16:51Z,42.805,6.029,13.2980,4.59992,2470.203,2019-12-30T12:17:22Z
2019-12-30T10:19:54Z,42.805,6.029,13.2974,4.59999,2470.203,2019-12-30T12:20:25Z
2019-12-30T10:22:57Z,42.805,6.029,13.2986,4.60020,2470.203,2019-12-30T12:23:29Z
2019-12-30T10:26:01Z,42.805,6.029,13.2984,4.59993,2470.194,2019-12-30T12:26:32Z
2019-12-30T10:29:04Z,42.805,6.029,13.2969,4.59986,2470.217,2019-12-30T12:29:35Z
2019-12-30T10:32:07Z,42.805,6.029,13.2975,4.59986,2470.217,2019-12-30T12:32:38Z
2019-12-30T10:35:10Z,42.805,6.029,13.2983,4.59994,2470.217,2019-12-30T12:35:42Z
2019-12-30T10:38:14Z,42.805,6.029,13.2974,4.59989,2470.156,2019-12-30T12:38:45Z
2019-12-30T10:41:17Z,42.805,6.029,13.2982,4.59984,2470.18,2019-12-30T12:41:48Z
2019-12-30T10:44:20Z,42.805,6.029,13.2974,4.60006,2470.227,2019-12-30T12:44:51Z
2019-12-30T10:47:23Z,42.805,6.029,13.2968,4.59982,2470.18,2019-12-30T12:47:55Z
2019-12-30T10:50:27Z,42.805,6.029,13.2968,4.59981,2470.203,2019-12-30T12:50:58Z
2019-12-30T10:53:30Z,42.805,6.029,13.2971,4.59981,2470.194,2019-12-30T12:54:01Z
2019-12-30T10:56:33Z,42.805,6.029,13.2976,4.60003,2470.194,2019-12-30T12:57:04Z
2019-12-30T10:59:36Z,42.805,6.029,13.2979,4.60003,2470.194,2019-12-30T13:00:07Z
2019-12-30T11:02:39Z,42.805,6.029,13.2971,4.60003,2470.217,2019-12-30T13:03:11Z
2019-12-30T11:05:43Z,42.805,6.029,13.2972,4.59986,2470.203,2019-12-30T13:06:14Z
2019-12-30T11:08:46Z,42.805,6.029,13.2978,4.59983,2470.18,2019-12-30T13:09:17Z
2019-12-30T11:11:49Z,42.805,6.029,13.2975,4.59982,2470.194,2019-12-30T13:12:21Z
2019-12-30T11:14:53Z,42.805,6.029,13.2974,4.59988,2470.156,2019-12-30T13:15:24Z
2019-12-30T11:17:56Z,42.805,6.029,13.2979,4.59992,2470.18,2019-12-30T13:18:27Z
2019-12-30T11:20:59Z,42.805,6.029,13.2979,4.59998,2470.203,2019-12-30T13:21:30Z
2019-12-30T11:24:03Z,42.805,6.029,13.2981,4.60012,2470.203,2019-12-30T13:24:34Z
2019-12-30T11:27:06Z,42.805,6.029,13.2982,4.60006,2470.217,2019-12-30T13:27:37Z
2019-12-30T11:30:09Z,42.805,6.029,13.2973,4.59992,2470.194,2019-12-30T13:30:41Z
2019-12-30T11:33:13Z,42.805,6.029,13.2976,4.59991,2470.18,2019-12-30T13:33:44Z
2019-12-30T11:36:16Z,42.805,6.029,13.2983,4.60009,2470.18,2019-12-30T13:36:47Z
2019-12-30T11:39:19Z,42.805,6.029,13.2982,4.59998,2470.18,2019-12-30T13:39:50Z
2019-12-30T11:42:22Z,42.805,6.029,13.2998,4.59994,2470.18,2019-12-30T13:42:54Z
2019-12-30T11:45:26Z,42.805,6.029,13.2979,4.60023,2470.156,2019-12-30T13:45:57Z
2019-12-30T11:48:29Z,42.805,6.029,13.2995,4.60015,2470.18,2019-12-30T13:49:00Z
2019-12-30T11:51:32Z,42.805,6.029,13.2990,4.60014,2470.18,2019-12-30T13:52:03Z
2019-12-30T11:54:35Z,42.805,6.029,13.2991,4.60018,2470.171,2019-12-30T13:55:06Z
2019-12-30T11:57:38Z,42.805,6.029,13.2975,4.59999,2470.194,2019-12-30T13:58:10Z
2019-12-30T12:00:42Z,42.805,6.029,13.2979,4.60014,2470.194,2019-12-30T14:01:13Z
2019-12-30T12:03:45Z,42.805,6.029,13.2971,4.59991,2470.171,2019-12-30T14:04:16Z
2019-12-30T12:06:48Z,42.805,6.029,13.2981,4.59996,2470.156,2019-12-30T14:07:19Z
2019-12-30T12:09:51Z,42.805,6.029,13.2973,4.59991,2470.171,2019-12-30T14:10:23Z
2019-12-30T12:12:55Z,42.805,6.029,13.2976,4.60003,2470.194,2019-12-30T14:13:26Z
2019-12-30T12:15:58Z,42.805,6.029,13.2969,4.59992,2470.133,2019-12-30T14:16:29Z
2019-12-30T12:19:02Z,42.805,6.029,13.2972,4.59997,2470.171,2019-12-30T14:19:33Z
2019-12-30T12:22:05Z,42.805,6.029,13.2971,4.59994,2470.147,2019-12-30T14:22:36Z
2019-12-30T12:25:08Z,42.805,6.029,13.2979,4.59996,2470.203,2019-12-30T14:25:39Z
2019-12-30T12:28:11Z,42.805,6.029,13.2993,4.60013,2470.156,2019-12-30T14:28:43Z
2019-12-30T12:31:14Z,42.805,6.029,13.2976,4.59999,2470.171,2019-12-30T14:31:46Z
2019-12-30T12:34:18Z,42.805,6.029,13.2982,4.60005,2470.124,2019-12-30T14:34:49Z
2019-12-30T12:37:21Z,42.805,6.029,13.2975,4.59992,2470.11,2019-12-30T14:37:52Z
2019-12-30T12:40:24Z,42.805,6.029,13.2973,4.59992,2470.171,2019-12-30T14:40:55Z
2019-12-30T12:43:27Z,42.805,6.029,13.2974,4.59991,2470.11,2019-12-30T14:43:59Z
2019-12-30T12:46:31Z,42.805,6.029,13.2974,4.59991,2470.133,2019-12-30T14:47:02Z
2019-12-30T12:49:34Z,42.805,6.029,13.2983,4.59990,2470.11,2019-12-30T14:50:05Z
2019-12-30T12:52:37Z,42.805,6.029,13.2979,4.59996,2470.133,2019-12-30T14:53:08Z
2019-12-30T12:55:40Z,42.805,6.029,13.2982,4.60019,2470.156,2019-12-30T14:56:11Z
2019-12-30T12:58:43Z,42.805,6.029,13.2980,4.59991,2470.133,2019-12-30T14:59:15Z
2019-12-30T13:01:47Z,42.805,6.029,13.2993,4.59996,2470.11,2019-12-30T15:02:18Z
2019-12-30T13:04:50Z,42.805,6.029,13.2980,4.59991,2470.133,2019-12-30T15:05:21Z
2019-12-30T13:07:53Z,42.805,6.029,13.2976,4.59993,2470.156,2019-12-30T15:08:24Z
2019-12-30T13:10:56Z,42.805,6.029,13.2976,4.59988,2470.156,2019-12-30T15:11:28Z
2019-12-30T13:14:00Z,42.805,6.029,13.2986,4.59992,2470.11,2019-12-30T15:14:31Z
2019-12-30T13:17:03Z,42.805,6.029,13.2984,4.59990,2470.133,2019-12-30T15:17:34Z
2019-12-30T13:20:06Z,42.805,6.029,13.2972,4.59983,2470.1,2019-12-30T15:20:37Z
2019-12-30T13:23:09Z,42.805,6.029,13.2971,4.59995,2470.124,2019-12-30T15:23:41Z
2019-12-30T13:26:13Z,42.805,6.029,13.2974,4.59992,2470.124,2019-12-30T15:26:44Z
2019-12-30T13:29:16Z,42.805,6.029,13.2973,4.59999,2470.11,2019-12-30T15:29:47Z
2019-12-30T13:32:19Z,42.805,6.029,13.2976,4.59998,2470.087,2019-12-30T15:32:50Z
2019-12-30T13:35:22Z,42.805,6.029,13.2975,4.59991,2470.096,2019-12-30T15:35:54Z
2019-12-30T13:38:26Z,42.805,6.029,13.2975,4.59999,2470.124,2019-12-30T15:38:57Z
2019-12-30T13:41:29Z,42.805,6.029,13.2972,4.59991,2470.124,2019-12-30T15:42:00Z
2019-12-30T13:44:32Z,42.805,6.029,13.2980,4.59988,2470.124,2019-12-30T15:45:03Z
2019-12-30T13:47:35Z,42.805,6.029,13.2977,4.59996,2470.124,2019-12-30T15:48:06Z
2019-12-30T13:50:38Z,42.805,6.029,13.2972,4.59999,2470.096,2019-12-30T15:51:10Z
2019-12-30T13:53:42Z,42.805,6.029,13.2976,4.59999,2470.124,2019-12-30T15:54:13Z
2019-12-30T13:56:45Z,42.805,6.029,13.2982,4.59999,2470.1,2019-12-30T15:57:16Z
2019-12-30T13:59:48Z,42.805,6.029,13.2972,4.60016,2470.1,2019-12-30T16:00:19Z
2019-12-30T14:02:51Z,42.805,6.029,13.2986,4.60008,2470.11,2019-12-30T16:03:23Z
2019-12-30T14:05:54Z,42.805,6.029,13.2979,4.59999,2470.063,2019-12-30T16:06:26Z
2019-12-30T14:08:58Z,42.805,6.029,13.2977,4.60034,2470.133,2019-12-30T16:09:29Z
2019-12-30T14:12:01Z,42.805,6.029,13.2976,4.60008,2470.077,2019-12-30T16:12:32Z
2019-12-30T14:15:04Z,42.805,6.029,13.2982,4.60000,2470.063,2019-12-30T16:15:35Z
2019-12-30T14:18:07Z,42.805,6.029,13.2988,4.60014,2470.1,2019-12-30T16:18:39Z
2019-12-30T14:21:11Z,42.805,6.029,13.2993,4.60007,2470.087,2019-12-30T16:21:42Z
2019-12-30T14:24:14Z,42.805,6.029,13.2977,4.60003,2470.124,2019-12-30T16:24:45Z
2019-12-30T14:27:17Z,42.805,6.029,13.2994,4.60019,2470.1,2019-12-30T16:27:48Z
2019-12-30T14:30:20Z,42.805,6.029,13.2975,4.60009,2470.11,2019-12-30T16:30:51Z
2019-12-30T14:33:23Z,42.805,6.029,13.2974,4.59986,2470.063,2019-12-30T16:33:55Z
2019-12-30T14:36:27Z,42.805,6.029,13.2979,4.60015,2470.11,2019-12-30T16:36:58Z
2019-12-30T14:39:30Z,42.805,6.029,13.2978,4.60009,2470.063,2019-12-30T16:40:01Z
2019-12-30T14:42:33Z,42.805,6.029,13.2976,4.59998,2470.077,2019-12-30T16:43:04Z
2019-12-30T14:45:36Z,42.805,6.029,13.2974,4.59993,2470.077,2019-12-30T16:46:08Z
2019-12-30T14:48:39Z,42.805,6.029,13.2975,4.59990,2470.077,2019-12-30T16:49:11Z
2019-12-30T14:51:43Z,42.805,6.029,13.2974,4.59991,2470.1,2019-12-30T16:52:14Z
2019-12-30T14:54:46Z,42.805,6.029,13.2991,4.60016,2470.073,2019-12-30T16:55:17Z
2019-12-30T14:57:49Z,42.805,6.029,13.2989,4.60007,2470.087,2019-12-30T16:58:20Z
2019-12-30T15:00:52Z,42.805,6.029,13.2982,4.59999,2470.063,2019-12-30T17:01:24Z
2019-12-30T15:03:56Z,42.805,6.029,13.2978,4.60003,2470.087,2019-12-30T17:04:27Z